BAW265 EGLL-KSAN

Flight info

Callsign BAW265
Flight time N/A
Altitude 34000
Route ULTIB T420 TNT UL28 RODOL UM65 TENSO L603 BELOX DCT REMSI DCT GOMUP/M083F340 DCT 5830N02000W 5930N03000W 60N040W 59N050W/M082F360 DCT TOXIT DCT SINGA/N0483F360 DCT LOPVI DCT 59N070W 5730N08000W 54N090W/N0469F380 DCT OTLUR DCT KP21A DCT KP06Y DCT KD84W DCT KD75U DCT KD63S DCT KD48Q/N0472F400 DCT PGS DCT PKE LUCKI1
Aircraft B772/H-SDE2E3FGHIJ5LORVWXY/LB1D1

Departure

Time N/A
Airport London Heathrow Airport (EGLL)

Arrival

Time 2026-04-22 15:04
Airport San Diego International Airport (KSAN)
Time Latitude Longitude Altitude Speed Heading
2026-04-22 13:58 36.83656 -111.78303 39881 ft 419 kts 234°
2026-04-22 13:58 36.79906 -111.83894 39875 ft 419 kts 234°
2026-04-22 13:59 36.76156 -111.89476 39888 ft 418 kts 234°
2026-04-22 13:59 36.72432 -111.95009 39893 ft 419 kts 234°
2026-04-22 14:00 36.68682 -112.00572 39894 ft 419 kts 234°
2026-04-22 14:00 36.64937 -112.06118 39901 ft 418 kts 235°
2026-04-22 14:01 36.61184 -112.11668 39905 ft 418 kts 234°
2026-04-22 14:01 36.57450 -112.17180 39919 ft 418 kts 235°
2026-04-22 14:02 36.53693 -112.22717 39937 ft 419 kts 235°
2026-04-22 14:02 36.49952 -112.28221 39939 ft 419 kts 235°
2026-04-22 14:03 36.46183 -112.33756 39958 ft 418 kts 235°
2026-04-22 14:03 36.42422 -112.39270 39967 ft 417 kts 235°
2026-04-22 14:04 36.38664 -112.44771 39961 ft 417 kts 235°
2026-04-22 14:04 36.34918 -112.50251 39981 ft 415 kts 235°
2026-04-22 14:05 36.31241 -112.55604 39970 ft 408 kts 236°
2026-04-22 14:06 36.25703 -112.63679 39980 ft 411 kts 236°
2026-04-22 14:06 36.21987 -112.69082 39990 ft 412 kts 236°
2026-04-22 14:07 36.18242 -112.74505 39972 ft 415 kts 236°
2026-04-22 14:07 36.14521 -112.79906 39964 ft 414 kts 236°
2026-04-22 14:08 36.10790 -112.85308 39974 ft 411 kts 236°
2026-04-22 14:08 36.07076 -112.90667 39981 ft 409 kts 236°
2026-04-22 14:09 36.03381 -112.95993 39987 ft 407 kts 236°
2026-04-22 14:09 35.99698 -113.01296 39978 ft 406 kts 236°
2026-04-22 14:10 35.96044 -113.06549 39981 ft 405 kts 236°
2026-04-22 14:10 35.92371 -113.11821 39984 ft 405 kts 236°
2026-04-22 14:11 35.88695 -113.17088 39974 ft 406 kts 236°
2026-04-22 14:11 35.85605 -113.21509 39965 ft 405 kts 236°
2026-04-22 14:12 35.81935 -113.26755 39971 ft 407 kts 236°
2026-04-22 14:12 35.78245 -113.32025 39981 ft 408 kts 236°
2026-04-22 14:13 35.74503 -113.37352 39980 ft 411 kts 236°
2026-04-22 14:13 35.70751 -113.42689 39966 ft 412 kts 236°
2026-04-22 14:14 35.67056 -113.47935 39970 ft 404 kts 236°
2026-04-22 14:14 35.63189 -113.52981 39968 ft 408 kts 229°
2026-04-22 14:15 35.58733 -113.57306 39966 ft 414 kts 222°
2026-04-22 14:15 35.53803 -113.61095 39955 ft 416 kts 221°
2026-04-22 14:16 35.48894 -113.64791 39991 ft 416 kts 221°
2026-04-22 14:16 35.43945 -113.68530 40016 ft 417 kts 221°
2026-04-22 14:17 35.39008 -113.72273 40048 ft 419 kts 221°
2026-04-22 14:17 35.34015 -113.76057 40081 ft 421 kts 221°
2026-04-22 14:18 35.29049 -113.79820 40093 ft 422 kts 221°
2026-04-22 14:18 35.24045 -113.83598 40104 ft 422 kts 221°
2026-04-22 14:19 35.19062 -113.87358 40109 ft 422 kts 221°
2026-04-22 14:19 35.14084 -113.91109 39967 ft 421 kts 221°
2026-04-22 14:20 35.06603 -113.96738 39967 ft 421 kts 221°
2026-04-22 14:20 35.01615 -114.00485 39980 ft 421 kts 221°
2026-04-22 14:21 34.94091 -114.06125 39968 ft 421 kts 220°
2026-04-22 14:22 34.86627 -114.11707 39972 ft 421 kts 220°
2026-04-22 14:23 34.79137 -114.17298 40016 ft 421 kts 220°
2026-04-22 14:23 34.74108 -114.21045 40040 ft 422 kts 220°
2026-04-22 14:24 34.69119 -114.24757 40055 ft 422 kts 220°
2026-04-22 14:24 34.64113 -114.28476 40084 ft 423 kts 220°
2026-04-22 14:25 34.59927 -114.31582 40090 ft 424 kts 220°
2026-04-22 14:25 34.54043 -114.35942 40080 ft 425 kts 220°
2026-04-22 14:26 34.48982 -114.39685 40009 ft 426 kts 220°
2026-04-22 14:26 34.43922 -114.43422 39974 ft 426 kts 220°
2026-04-22 14:27 34.38888 -114.47135 40001 ft 426 kts 220°
2026-04-22 14:27 34.33829 -114.50862 40011 ft 426 kts 220°
2026-04-22 14:28 34.28740 -114.54606 40015 ft 427 kts 220°
2026-04-22 14:28 34.23645 -114.58348 40025 ft 428 kts 220°
2026-04-22 14:29 34.18573 -114.62068 40018 ft 428 kts 220°
2026-04-22 14:29 34.13492 -114.65790 40029 ft 428 kts 220°
2026-04-22 14:29 34.11077 -114.67824 40022 ft 414 kts 230°
2026-04-22 14:30 34.09199 -114.70356 40035 ft 404 kts 242°
2026-04-22 14:30 34.06592 -114.76311 40038 ft 404 kts 248°
2026-04-22 14:31 34.03960 -114.82345 40048 ft 410 kts 247°
2026-04-22 14:31 34.01253 -114.88459 40049 ft 411 kts 247°
2026-04-22 14:32 33.98602 -114.94430 40039 ft 402 kts 247°
2026-04-22 14:32 33.95965 -115.00374 40045 ft 401 kts 247°
2026-04-22 14:33 33.94325 -115.04050 40046 ft 401 kts 247°
2026-04-22 14:36 33.93137 -115.06702 40045 ft 401 kts 247°
2026-04-22 14:37 33.90477 -115.12630 40057 ft 401 kts 247°
2026-04-22 14:37 33.87830 -115.18528 40061 ft 402 kts 247°
2026-04-22 14:38 33.85146 -115.24503 39497 ft 413 kts 246°
2026-04-22 14:38 33.83791 -115.27517 38898 ft 411 kts 247°
2026-04-22 14:38 33.82423 -115.30550 38098 ft 410 kts 246°
2026-04-22 14:38 33.81063 -115.33561 37357 ft 407 kts 246°
2026-04-22 14:39 33.79721 -115.36533 36765 ft 402 kts 246°
2026-04-22 14:39 33.78408 -115.39440 36198 ft 398 kts 246°
2026-04-22 14:39 33.77095 -115.42345 35642 ft 394 kts 245°
2026-04-22 14:40 33.74931 -115.47135 34725 ft 388 kts 245°
2026-04-22 14:40 33.73216 -115.50922 33988 ft 384 kts 244°
2026-04-22 14:40 33.71955 -115.53707 33408 ft 380 kts 245°
2026-04-22 14:40 33.70718 -115.56501 32883 ft 377 kts 245°
2026-04-22 14:41 33.69496 -115.59286 32345 ft 373 kts 245°
2026-04-22 14:41 33.68288 -115.62041 31842 ft 370 kts 245°
2026-04-22 14:41 33.67104 -115.64736 31337 ft 367 kts 245°
2026-04-22 14:41 33.65912 -115.67443 30850 ft 364 kts 245°
2026-04-22 14:42 33.64728 -115.70129 30363 ft 362 kts 245°
2026-04-22 14:42 33.63548 -115.72800 29831 ft 360 kts 245°
2026-04-22 14:42 33.62375 -115.75449 29245 ft 358 kts 245°
2026-04-22 14:42 33.61132 -115.77999 28725 ft 357 kts 240°
2026-04-22 14:43 33.59721 -115.80449 28202 ft 355 kts 238°
2026-04-22 14:43 33.58289 -115.82833 27694 ft 353 kts 238°
2026-04-22 14:43 33.56859 -115.85229 27192 ft 351 kts 238°
2026-04-22 14:43 33.55454 -115.87623 26709 ft 349 kts 239°
2026-04-22 14:44 33.54065 -115.90015 26242 ft 348 kts 239°
2026-04-22 14:44 33.52702 -115.92371 25770 ft 347 kts 239°
2026-04-22 14:44 33.51324 -115.94752 25302 ft 346 kts 239°
2026-04-22 14:44 33.49943 -115.97137 24836 ft 345 kts 238°
2026-04-22 14:45 33.48588 -115.99475 24378 ft 345 kts 238°
2026-04-22 14:45 33.47219 -116.01836 23898 ft 345 kts 238°
2026-04-22 14:45 33.45841 -116.04211 23394 ft 345 kts 238°
2026-04-22 14:45 33.44489 -116.06542 22894 ft 344 kts 238°
2026-04-22 14:46 33.43126 -116.08888 22437 ft 342 kts 238°
2026-04-22 14:46 33.41761 -116.11238 21988 ft 341 kts 238°
2026-04-22 14:46 33.40422 -116.13541 21536 ft 339 kts 238°
2026-04-22 14:46 33.39075 -116.15856 21108 ft 338 kts 238°
2026-04-22 14:47 33.37730 -116.18170 20675 ft 336 kts 238°
2026-04-22 14:47 33.36391 -116.20467 20286 ft 336 kts 238°
2026-04-22 14:47 33.35050 -116.22769 19834 ft 337 kts 238°
2026-04-22 14:47 33.33542 -116.24874 19393 ft 338 kts 224°
2026-04-22 14:48 33.31550 -116.26413 18995 ft 344 kts 211°
2026-04-22 14:48 33.29396 -116.27667 18597 ft 344 kts 210°
2026-04-22 14:48 33.27246 -116.28895 18140 ft 345 kts 210°
2026-04-22 14:48 33.25064 -116.30142 17679 ft 346 kts 210°
2026-04-22 14:49 33.22895 -116.31390 17242 ft 345 kts 210°
2026-04-22 14:49 33.20760 -116.32627 16816 ft 345 kts 210°
2026-04-22 14:49 33.18599 -116.33884 16376 ft 344 kts 210°
2026-04-22 14:49 33.16459 -116.35132 15908 ft 345 kts 210°
2026-04-22 14:50 33.14291 -116.36398 15444 ft 345 kts 210°
2026-04-22 14:50 33.12137 -116.37656 14999 ft 344 kts 210°
2026-04-22 14:50 33.09976 -116.38918 14598 ft 344 kts 210°
2026-04-22 14:50 33.07843 -116.40164 14192 ft 344 kts 210°
2026-04-22 14:51 33.05672 -116.41433 13690 ft 345 kts 210°
2026-04-22 14:51 33.03532 -116.42681 13217 ft 345 kts 209°
2026-04-22 14:51 33.01379 -116.43933 12786 ft 343 kts 211°
2026-04-22 14:51 32.99400 -116.45381 12460 ft 329 kts 221°
2026-04-22 14:52 32.97679 -116.47154 12091 ft 325 kts 225°
2026-04-22 14:52 32.95988 -116.48933 11752 ft 320 kts 224°
2026-04-22 14:52 32.94329 -116.50657 11308 ft 319 kts 223°
2026-04-22 14:52 32.92665 -116.52361 10882 ft 316 kts 224°
2026-04-22 14:53 32.90977 -116.54075 10351 ft 319 kts 223°
2026-04-22 14:53 32.89314 -116.55757 10200 ft 308 kts 224°
2026-04-22 14:53 32.87703 -116.57381 10115 ft 296 kts 224°
2026-04-22 14:53 32.86161 -116.58933 10033 ft 284 kts 224°
2026-04-22 14:54 32.84676 -116.60422 9900 ft 275 kts 224°
2026-04-22 14:54 32.83207 -116.61907 9434 ft 279 kts 224°
2026-04-22 14:54 32.81745 -116.63382 9069 ft 278 kts 224°
2026-04-22 14:54 32.80284 -116.64854 8759 ft 274 kts 224°
2026-04-22 14:55 32.78822 -116.66322 8447 ft 272 kts 224°
2026-04-22 14:55 32.77418 -116.67804 8121 ft 262 kts 232°
2026-04-22 14:55 32.76428 -116.69545 7823 ft 253 kts 244°
2026-04-22 14:55 32.75596 -116.71383 7550 ft 251 kts 245°
2026-04-22 14:56 32.74765 -116.73215 7275 ft 251 kts 245°
2026-04-22 14:56 32.73932 -116.75025 7004 ft 253 kts 245°
2026-04-22 14:56 32.73069 -116.76887 6706 ft 257 kts 244°
2026-04-22 14:56 32.72490 -116.78116 6498 ft 258 kts 244°
2026-04-22 14:57 32.71331 -116.80569 6155 ft 253 kts 243°
2026-04-22 14:57 32.70766 -116.81766 6062 ft 247 kts 245°
2026-04-22 14:57 32.70097 -116.83616 5774 ft 241 kts 253°
2026-04-22 14:57 32.69537 -116.85492 5499 ft 238 kts 253°
2026-04-22 14:58 32.68984 -116.87335 5239 ft 236 kts 252°
2026-04-22 14:58 32.68442 -116.89178 4982 ft 233 kts 253°
2026-04-22 14:58 32.67913 -116.91004 4696 ft 233 kts 252°
2026-04-22 14:58 32.67404 -116.92813 4366 ft 228 kts 258°
2026-04-22 14:59 32.67429 -116.94611 4106 ft 217 kts 286°
2026-04-22 14:59 32.67863 -116.96321 3850 ft 217 kts 287°
2026-04-22 14:59 32.68274 -116.98036 3590 ft 214 kts 287°
2026-04-22 14:59 32.68681 -116.99725 3337 ft 209 kts 287°
2026-04-22 15:00 32.69075 -117.01353 3078 ft 202 kts 287°
2026-04-22 15:00 32.69459 -117.02931 2826 ft 195 kts 287°
2026-04-22 15:00 32.69829 -117.04454 2564 ft 189 kts 287°
2026-04-22 15:00 32.70186 -117.05917 2346 ft 180 kts 288°
2026-04-22 15:01 32.70524 -117.07307 2138 ft 173 kts 288°
2026-04-22 15:01 32.70861 -117.08689 1891 ft 175 kts 287°
2026-04-22 15:01 32.71194 -117.10053 1604 ft 166 kts 287°
2026-04-22 15:01 32.71493 -117.11285 1377 ft 149 kts 287°
2026-04-22 15:02 32.71769 -117.12421 1162 ft 141 kts 287°
2026-04-22 15:02 32.72039 -117.13531 1083 ft 140 kts 287°
2026-04-22 15:02 32.72317 -117.14660 894 ft 143 kts 287°
2026-04-22 15:02 32.72590 -117.15785 647 ft 141 kts 286°
2026-04-22 15:03 32.72856 -117.16899 329 ft 138 kts 286°
2026-04-22 15:03 32.73119 -117.17994 78 ft 136 kts 286°
2026-04-22 15:03 32.73365 -117.18989 30 ft 108 kts 285°
2026-04-22 15:03 32.73516 -117.19627 33 ft 55 kts 286°
2026-04-22 15:04 32.73595 -117.19949 31 ft 37 kts 287°
2026-04-22 15:04 32.73664 -117.20229 28 ft 34 kts 285°
2026-04-22 15:04 32.73671 -117.20391 27 ft 15 kts 227°
2026-04-22 15:04 32.73606 -117.20426 26 ft 5 kts 196°
2026-04-22 15:05 32.73601 -117.20427 27 ft 1 kts 196°
2026-04-22 15:05 32.73599 -117.20428 25 ft 0 kts 197°
2026-04-22 15:05 32.73586 -117.20433 24 ft 11 kts 197°
2026-04-22 15:06 32.73514 -117.20510 26 ft 14 kts 229°
2026-04-22 15:06 32.73428 -117.20558 29 ft 14 kts 178°
2026-04-22 15:06 32.73343 -117.20599 27 ft 14 kts 246°
2026-04-22 15:06 32.73326 -117.20690 27 ft 6 kts 219°
2026-04-22 15:07 32.73288 -117.20706 28 ft 6 kts 191°
2026-04-22 15:07 32.73271 -117.20710 29 ft 0 kts 192°